Airfield :
LOGIN :

Register | Disclaimer

   EN    FR    IT 

 










Legend :    VFR   Marginal VFR   IFR   Intensive IFR   Very Intensive IFR
Visi :
Ceiling :
>= 8 km
>= 3000ft
5 to 8 km
1000 to 3000 ft
1500m to 5 km
500 to 1000 ft
800 to 1500m
200 to 500 ft
< 800m
< 200 ft
Symbols :   Thunderstorms  Fog  Heavy snow  Heavy precipitations  Wind > 20 kt
SIGMETs :     Misc.  Thunderstorms  Icing  Turbulence  Mountain Waves  Volcanic Ashes






- Airport Elevation : 2936 ft


LECH - Calamocha

CURRENT METAR :
  • 021000Z AUTO VRB02KT 9999 SCT040 BKN056 12/08 Q1012

EXPIRED METARs :
  • 020930Z AUTO 10003KT 040V160 9999 FEW042 OVC057 11/09 Q1012
  • 020900Z AUTO 07003KT 9000 BKN050 11/08 Q1012
  • 020830Z AUTO 00000KT 9999 FEW010 BKN056 11/08 Q1011
  • 020800Z AUTO VRB01KT 9999 SCT041 OVC050 10/08 Q1011
  • 020730Z AUTO VRB01KT 9999 OVC041 09/08 Q1011

Expired Forecast.



MET'MAP, your aeronautical weather chart ! - Copyright ORBIFLY December 2007 - Disclaimer

ORBIFLY MET'MAP TEAM :

Programming & Development : Alexandra Zaïnal
Concept & original design : Baudouin d'Aumeries
Assistance for programming : Marc-Olivier Méhu
Technical & hardware support : Manuel Goepfert

Contact : metmap@orbifly.com




SOURCES & CREDITS :

   NOAA